Flag for United Kingdom Weather past 2 weeks in Manchester, England, United Kingdom

Now
54 °F

Passing clouds.


Feels Like: 48 °F
Forecast: 51 / 54 °F
Wind: 21 mph from Southwest

Location: Manchester Airport

Current Time: Dec 22, 2014 at 7:26:12 AM

Latest Report: Dec 22, 2014 at 6:50 AM


Visibility: N/A

Pressure: 29.86 "Hg

Humidity: 82%

Dew point: 48 °F

Location of ManchesterLocation

Historic Weather in Manchester — Graph

°F

Manchester temperature yesterday

Maximum temperature yesterday: 54 °F (at 6:20 PM)
Minimum temperature yesterday: 43 °F (at 6:50 AM)
Average temperature yesterday: 48 °F

Past Weeks' High & Low Weather Summary

 TemperatureHumidityPressure
High55 °F (Dec 18, 3:20 PM)100% (Dec 7, 6:20 AM)30.36 "Hg (Dec 7, 6:20 AM)
Low28 °F (Dec 13, 3:20 AM)66% (Dec 10, 11:20 AM)29.15 "Hg (Dec 12, 3:50 AM)
Average43 °F89%29.83 "Hg
* Reported Dec 7 6:20 AM — Dec 22 6:20 AM, Manchester, Weather by CustomWeather, © 2014

Note: Actual official high and low records may vary slightly from our data, if they occured in-between our weather recording intervals... More about our weather records

Advertising

Manchester weather history for previous 24 hours

 ConditionsComfort  
Time TempWeatherWind HumidityBarometerVisibility
6:20 AM
Dec 22
54 °FPassing clouds.21 mph82%29.86 "HgN/A
5:50 AM54 °FPassing clouds.18 mph82%29.86 "HgN/A
5:20 AM54 °FPassing clouds.23 mph82%29.86 "HgN/A
4:50 AM54 °FPartly cloudy.25 mph82%29.86 "HgN/A
4:20 AM54 °FPartly cloudy.24 mph82%29.86 "HgN/A
3:50 AM54 °FPassing clouds.25 mph82%29.86 "HgN/A
3:20 AM54 °FClear.29 mph82%29.86 "Hg10 mi
2:50 AM54 °FCool.24 mph82%29.89 "HgN/A
2:20 AM54 °FPassing clouds.26 mph82%29.89 "HgN/A
1:50 AM54 °FPassing clouds.24 mph82%29.89 "HgN/A
1:20 AM54 °FPassing clouds.24 mph82%29.89 "HgN/A
12:50 AM54 °FPassing clouds.25 mph82%29.92 "HgN/A
12:20 AM54 °FPassing clouds.25 mph82%29.92 "HgN/A
11:50 PM
Dec 21
54 °FPassing clouds.20 mph82%29.92 "HgN/A
11:20 PM54 °FPartly cloudy.22 mph82%29.92 "HgN/A
10:50 PM54 °FPassing clouds.21 mph82%29.92 "HgN/A
10:20 PM54 °FPartly cloudy.20 mph82%29.95 "HgN/A
9:20 PM52 °FPassing clouds.22 mph88%29.95 "HgN/A
8:50 PM52 °FPassing clouds.22 mph88%29.95 "HgN/A
8:20 PM52 °FPassing clouds.21 mph88%29.95 "HgN/A
7:50 PM54 °FPassing clouds.23 mph82%29.98 "HgN/A
7:20 PM54 °FPassing clouds.24 mph82%29.95 "HgN/A
6:50 PM54 °FPassing clouds.22 mph82%29.98 "HgN/A
6:20 PM54 °FPassing clouds.20 mph77%29.98 "HgN/A
5:50 PM52 °FPassing clouds.18 mph82%29.98 "HgN/A
5:20 PM52 °FPassing clouds.20 mph82%29.98 "HgN/A
4:50 PM52 °FPassing clouds.20 mph82%30.01 "HgN/A
4:20 PM50 °FPassing clouds.13 mph88%30.01 "HgN/A
3:50 PM50 °FPassing clouds.13 mph82%30.04 "HgN/A
3:20 PM50 °FScattered clouds.12 mph82%30.04 "HgN/A
2:50 PM50 °FPartly sunny.9 mph88%30.07 "HgN/A
2:20 PM50 °FPartly sunny.10 mph82%30.07 "HgN/A
1:50 PM52 °FPartly sunny.17 mph77%30.09 "HgN/A
1:20 PM52 °FPartly sunny.20 mph77%30.09 "HgN/A
12:50 PM52 °FPartly sunny.18 mph77%30.09 "HgN/A
12:20 PM50 °FPartly sunny.17 mph82%30.09 "HgN/A
11:50 AM48 °FPartly sunny.16 mph87%30.12 "HgN/A
11:20 AM48 °FPartly sunny.13 mph87%30.15 "HgN/A
10:50 AM46 °FPartly sunny.13 mph93%30.15 "HgN/A
10:20 AM46 °FBroken clouds.13 mph87%30.15 "HgN/A
9:50 AM46 °FBroken clouds.14 mph87%30.15 "HgN/A
9:20 AM45 °FLight rain. Broken clouds.13 mph93%30.18 "Hg3 mi
8:50 AM45 °FRain. Broken clouds.13 mph87%30.18 "Hg2 mi
8:20 AM45 °FPassing clouds.10 mph87%30.18 "HgN/A
7:50 AM45 °FPartly cloudy.10 mph87%30.21 "HgN/A
7:20 AM45 °FScattered showers. Partly cloudy.10 mph87%30.21 "HgN/A
Weather by CustomWeather, © 2014

See weather overviewHow to use our weather pages